Location: Raymertown
(42.8140°N, 73.5346°W)
Time: 05:06:41
(UTC+00:00)

Daily predictions for brighter satellites

Satellite Brightness Start Highest point End
(mag) Time Altitude Azimuth Time Altitude Azimuth Time Altitude Azimuth
OAO 2 Rocket 4.5 00:03:59 10° SW 00:07:50 29° S 00:07:50 29° S
SeaSat 1 2.3 00:11:24 75° NE 00:11:24 75° NE 00:16:11 10° NNW
Cosmos 2219 4.0 00:07:02 10° NW 00:12:36 51° WSW 00:17:55 11° S
USA 305 4.3 00:10:50 10° NW 00:13:35 31° NNW 00:13:35 31° NNW
YAOGAN 1 4.1 00:11:39 10° SSW 00:15:37 35° W 00:19:38 10° NNW
Cosmos 883 Rocket 4.3 00:13:11 10° S 00:19:20 82° E 00:25:30 10° N
USA 306 4.4 00:17:07 10° NW 00:19:37 29° NNW 00:19:37 29° NNW
S3M 4.4 00:15:57 10° SSW 00:21:58 60° W 00:28:04 10° N
Cosmos 2082 3.6 00:16:58 10° NNW 00:22:40 84° NE 00:22:40 84° NE
CZ-2C R/B 4.5 00:19:39 10° SSW 00:25:06 41° W 00:30:30 10° NNW
SL-4 R/B 4.2 00:22:45 10° NW 00:24:00 17° NNW 00:24:00 17° NNW
Cosmos 968 Rocket 4.2 00:21:25 10° NNW 00:26:27 51° WSW 00:28:17 35° SSW
Cosmos 1346 Rocket 4.3 00:25:11 10° NNW 00:28:23 36° WNW 00:28:23 36° WNW
Cosmos 2369 3.7 00:26:44 10° SSW 00:32:24 79° WNW 00:32:24 79° WNW
NOSS 3-4 (A) 4.4 00:27:02 10° NNW 00:32:51 41° NNE 00:32:51 41° NNE
NOSS 3-4 (C) 4.4 00:27:08 10° NNW 00:32:56 41° NNE 00:32:56 41° NNE
Atlas Centaur 2 3.9 00:27:42 10° SW 00:35:03 33° S 00:35:21 33° S
ARGOS 3.6 00:36:35 46° SSW 00:37:49 57° W 00:43:11 10° NNW
NOSS 3-3 (A) 4.1 00:35:25 10° SW 00:41:10 67° NW 00:41:50 62° NNW
NOSS 3-3 (C) 4.1 00:35:30 10° SW 00:41:18 67° NW 00:41:58 62° NNW
USA 215 3.6 00:42:31 51° NNE 00:42:31 51° NNE 00:48:22 10° NW
Cosmos 2227 Rocket 3.7 00:43:50 10° NW 00:48:49 33° WSW 00:51:12 24° SSW
ATLAS 2AS CENTAUR R/B 3.6 00:48:42 10° NNW 00:54:14 40° N 00:54:14 40° N
Cosmos 2263 Rocket 4.1 00:52:48 10° NNW 00:54:45 21° N 00:54:45 21° N
Cosmos 1697 Rocket 3.9 01:00:42 10° SW 01:05:53 38° WNW 01:06:00 38° NW
Lacrosse 5 4.3 01:02:17 10° NNW 01:03:38 15° NNW 01:03:38 15° NNW
H-2A R/B (2) 4.4 00:33:15 10° WSW 01:08:09 39° SSW 01:09:35 37° S
H-2A R/B 4.3 01:04:44 10° SW 01:08:55 23° W 01:13:12 10° NW
CZ-4C R/B 4.2 01:21:47 10° NNW 01:25:16 28° N 01:25:16 28° N
USA 234 4.3 07:58:53 10° NE 08:03:15 35° N 08:03:15 35° N
ADEOS Rocket 4.0 08:09:14 10° SE 08:14:13 37° ENE 08:19:18 10° N
DELTA 2 R/B (1) 4.3 08:44:03 43° SSE 08:44:03 43° SSE 08:48:12 10° ESE
NOSS 3-2 (C) 3.3 08:44:10 77° N 08:44:10 77° N 08:50:13 10° NE
ISS -0.9 08:46:04 18° E 08:46:04 18° E 08:47:13 10° ENE
ALOS 4.1 08:50:51 10° NNE 08:54:59 30° E 08:59:05 10° SSE
Lacrosse 4 Rocket 2.6 08:57:05 36° NE 08:57:05 36° NE 08:59:33 10° NNE
CENTAUR R/B 2.3 08:57:17 69° W 08:57:41 72° NW 09:04:40 10° NNE
CZ-2C R/B 2.2 09:00:09 10° NNE 09:05:10 87° WNW 09:05:24 81° SW
Cosmos 1626 3.9 09:03:58 10° SSE 09:07:16 32° E 09:10:35 10° NNE
ADEOS 4.4 09:06:50 10° NNE 09:11:56 51° E 09:17:00 10° S
PAYLOAD A 3.9 09:07:20 10° N 09:12:24 67° WNW 09:12:42 65° W
Cosmos 1833 Rocket 3.0 09:08:56 18° S 09:13:11 67° ESE 09:18:48 10° NNE
In-Cosmos 22 4.0 09:14:21 59° WNW 09:14:21 59° WNW 09:19:33 10° N
Cosmos 2180 Rocket 4.3 09:08:30 10° N 09:14:47 80° W 09:20:57 10° S
Nadezhda 4 Rocket 4.2 09:09:16 10° S 09:15:19 69° E 09:21:26 10° NNE
Cosmos 1302 Rocket 3.9 09:13:14 21° NNW 09:16:54 89° WSW 09:22:11 10° SSE
Cosmos 1269 Rocket 3.9 09:17:07 60° W 09:17:41 64° WNW 09:22:59 10° NNE
Geosat 4.0 09:17:13 10° SSE 09:22:14 82° ENE 09:26:27 15° NNW
Lacrosse 5 rocket 1.1 09:22:55 73° ESE 09:22:55 73° ESE 09:26:34 10° NE
H-2A R/B 4.5 09:20:34 10° S 09:20:50 11° S 09:20:50 11° S
Cosmos 2369 4.3 09:20:39 10° NNW 09:26:16 58° ENE 09:31:48 10° SE
Meteor 1-31 Rocket 3.9 09:24:37 10° NNE 09:28:27 46° E 09:32:13 10° S
Cosmos 2344 4.0 09:27:00 34° WNW 09:29:12 41° NW 09:36:52 10° NNE
USA 238 DEB 4.2 09:29:27 33° WNW 09:30:50 36° NW 09:37:10 10° NNE
USA 238 4.2 09:29:32 33° WNW 09:30:56 36° NW 09:37:16 10° NNE
Cosmos 2082 Rocket 2.9 09:26:48 10° S 09:32:14 54° ESE 09:37:42 10° NNE
Meteor 1-16 Rocket 4.1 09:27:29 10° NNW 09:32:36 50° W 09:37:43 10° SSW
NOSS 3-2 (A) 4.3 09:34:08 28° NW 09:35:08 29° NW 09:40:52 10° NNE
SJ-6F 4.2 09:31:38 10° N 09:35:44 76° WNW 09:39:21 13° SSW
CZ-4B R/B 1.4 09:35:52 10° SSE 09:39:19 88° E 09:42:45 10° NNW
Cosmos 1536 Rocket 4.5 09:40:50 31° NW 09:40:50 31° NW 09:43:51 10° N
Cosmos 1656 3.8 09:36:09 22° NW 09:39:42 53° WSW 09:45:12 10° S
CZ-4B R/B 4.2 09:37:31 10° NNE 09:41:45 68° ESE 09:45:44 10° S
Cosmos 220 Rocket 4.4 09:38:14 10° NNW 09:42:40 65° ENE 09:47:03 10° SSE
ATLAS 3B R/B 2.7 09:37:26 10° SSW 09:44:00 79° ESE 09:50:39 10° NE
deb Chang Zheng 4 3.5 09:40:04 10° NNE 09:44:20 86° ESE 09:48:36 10° SSW
Meteor 2-5 Rocket 3.7 09:38:52 10° S 09:44:32 88° E 09:50:22 10° N
COSMOS 2406 3.4 09:48:10 23° SW 09:51:30 48° WNW 09:57:00 10° NNE
Cosmos 1892 Rocket 4.0 09:50:06 10° S 09:54:23 63° E 09:58:43 10° NNE
Cosmos 1400 Rocket 3.4 09:51:59 10° N 09:55:53 57° ENE 09:59:42 10° SSE
Cosmos 1992 Rocket 4.0 09:52:20 10° NNW 09:57:35 84° ENE 10:02:47 10° SSE
Cosmos 1697 Rocket 2.6 09:52:48 10° NNW 09:58:26 69° WSW 10:04:03 10° SSE
ADEOS Rocket 3.5 09:55:10 10° SSW 09:59:52 29° W 10:04:38 10° NW
ARGOS Delta rocket 4.2 09:56:19 10° N 10:01:45 88° ESE 10:07:14 10° SSW
ERS-2 2.8 10:01:13 10° SSW 10:04:28 31° W 10:05:48 24° WNW
BREEZE-M DEB (TANK) 2.8 10:04:38 25° SW 10:04:54 26° SW 10:06:50 10° SSE
Cosmos 44 Rocket 4.1 10:04:23 20° WNW 10:07:11 35° WSW 10:11:50 10° S
SL-19 R/B 3.4 10:05:41 10° N 10:08:27 58° WNW 10:11:16 10° SSW
SKYMED 2 3.6 10:04:14 10° SSE 10:08:34 86° ENE 10:12:56 10° NNW
SAR-Lupe-4 3.6 10:06:14 10° S 10:09:44 55° WSW 10:13:17 10° NNW
SJ-12 3.8 10:06:30 10° NNE 10:10:38 86° WNW 10:14:43 10° SSW
FENGYUN 3A 3.8 10:06:09 10° N 10:11:25 51° WNW 10:16:39 10° SW
Cosmos 2026 Rocket 4.1 10:06:23 10° S 10:12:44 89° ESE 10:19:11 10° N
Abrixas rocket 2.7 10:11:30 22° NW 10:12:57 40° NNE 10:15:40 10° E
Cosmos 1461 3.2 10:10:09 11° SW 10:14:25 55° NW 10:19:04 10° NNE
TELKOM 3 3.9 10:12:56 23° WSW 10:14:50 68° NNW 10:18:46 10° ENE
Cosmos 2195 Rocket 4.4 10:11:09 10° SSW 10:17:21 73° W 10:23:32 10° N
Cosmos 1689 Rocket 1.9 10:15:01 10° S 10:17:56 69° WSW 10:20:52 10° NNW
SL-14 R/B 3.7 10:14:21 10° SSW 10:18:04 39° WNW 10:21:52 10° N
Cosmos 2251 Rocket 3.5 10:12:52 10° SSW 10:18:12 68° WNW 10:23:34 10° NNE
Cosmos 1980 Rocket 2.1 10:14:47 10° NNW 10:20:24 85° WSW 10:26:00 10° SSE
ISS -3.2 10:19:03 20° W 10:20:57 41° NNW 10:24:10 10° NE
USA 290 2.4 10:20:15 10° SW 10:23:20 45° WNW 10:26:29 10° N
Cosmos 1315 Rocket 4.3 10:21:21 10° N 10:25:17 42° ENE 10:29:13 10° SSE
Cosmos 614 Rocket 4.2 10:22:08 10° SSW 10:27:16 75° ESE 10:32:24 10° NNE
Cosmos 1300 3.1 10:23:50 10° NNW 10:27:26 40° W 10:31:01 10° SSW
Cosmos 2360 4.5 10:26:29 10° NW 10:31:55 46° WSW 10:37:17 10° S
ALOS 3.1 10:28:19 10° N 10:32:19 29° WNW 10:36:18 10° SW
PSLV R/B 4.0 10:28:14 10° S 10:32:22 58° WSW 10:36:33 10° NNW
Lacrosse 4 Rocket 3.2 10:33:26 11° WNW 10:34:43 13° NW 10:36:37 10° NNW
Cosmos 1726 Rocket 4.1 10:32:32 10° NNW 10:36:40 38° W 10:40:47 10° SSW
Cosmos 1484 Rocket 4.1 10:35:41 10° NNW 10:38:27 19° WNW 10:41:10 10° WSW
CZ-2C R/B 4.2 10:40:53 10° NW 10:42:33 12° WNW 10:44:11 10° WNW
Cosmos 1626 3.7 10:40:16 10° WSW 10:42:36 16° WNW 10:44:57 10° NNW
Cosmos 2278 3.9 10:41:43 10° NW 10:47:09 50° WSW 10:52:34 10° S
Aureole 3 4.0 10:43:15 10° NNW 10:47:14 46° W 10:52:12 10° SSW
H-2A R/B 2.7 10:43:57 10° N 10:47:47 82° WNW 10:51:37 10° SSW
Cosmos 2228 4.3 10:45:13 10° NW 10:48:30 21° W 10:51:47 10° SW
CZ-4B R/B 3.5 10:44:52 10° N 10:48:34 36° WNW 10:52:25 10° SW
CENTAUR R/B 4.0 10:44:52 10° WNW 10:49:48 22° NNW 10:55:20 10° NNE
Cosmos 2098 Rocket 3.9 10:43:50 10° S 10:50:14 85° E 10:55:22 10° N
Cosmos 2322 Rocket 3.5 10:45:45 10° NNW 10:51:08 42° ENE 10:56:28 10° SE
CREW DRAGON DEMO-1 DEB 4.3 10:51:03 10° NW 10:53:47 30° NNE 10:56:30 10° E
CZ-3 R/B 3.6 10:49:41 10° WSW 11:04:24 32° SSW 11:09:49 10° SE
